Regional Weather Roundup
Issued by NWS

Home | Current Version | Previous Version | Text Only | Print | Product List | Glossary On
Versions: 1 2 3 4 5 6 7 8 9 10 11 12 13 14 15 16 17 18 19 20 21 22 23 24 25 26 27 28 29 30 31 32 33 34 35 36 37 38 39 40 41 42 43 44 45 46 47 48 49 50
682
ASUS44 KJAN 082310
RWRMS

MISSISSIPPI HOURLY WEATHER ROUNDUP
NATIONAL WEATHER SERVICE JACKSON MS
500 PM CST MON FEB 08 2016

NOTE: "FAIR: INDICATES FEW OR NO CLOUDS BELOW 12,000 FEET WITH NO
SIGNIFICANT WEATHER AND/OR OBSTRUCTIONS TO VISIBILITY.

MSZ001>002-007>008-010>013-018>021-025>028-034>036-090000-
NORTHWEST MISSISSIPPI

CITY           SKY/WX    TMP DP  RH WIND       PRES   REMARKS
CLEVELAND      FAIR      44  23  43 NW22G29   30.03S
GREENWOOD      CLOUDY    46  18  32 NW14G21   30.02S
GREENVILLE     CLOUDY    46  19  34 NW25G31   30.04R
OXFORD         FAIR      41  18  38 W15       29.98S
TUNICA         CLOUDY    41  21  45 W20G28    30.01R
$$

MSZ003>006-009-014>017-022>024-029>033-037>039-090000-
NORTHEAST MISSISSIPPI

CITY           SKY/WX    TMP DP  RH WIND       PRES   REMARKS
COLUMBUS AFB   CLOUDY    44  24  45 W16G22    29.96R
CORINTH        CLOUDY    41  21  45 NW10G20   29.93R
GOLDN TRIANGLE CLOUDY    43  21  42 NW17G29   29.97R
STARKVILLE     CLOUDY    43  23  45 NW7       29.99R
TUPELO         CLOUDY    43  20  39 SW10G20   29.95S
$$

MSZ040-058-090000-
CENTRAL MISSISSIPPI

CITY           SKY/WX    TMP DP  RH WIND       PRES   REMARKS
JACKSON INTL   MOCLDY    49  17  28 NW15G24   30.01R
JACKSON HAWKNS CLOUDY    47  17  30 NW17G25   30.02S
MERIDIAN KEY   CLOUDY    46  21  37 NW10G20   29.98R
MERIDIAN NAS   MOCLDY    47  20  34 NW17G26   29.98R
VICKSBURG      CLOUDY    51  17  26 NW13G23   30.04S
$$

MSZ059>079-090000-
SOUTH MISSISSIPPI

CITY           SKY/WX    TMP DP  RH WIND       PRES   REMARKS
BROOKHAVEN     FAIR      48  19  32 W13G25    30.04R
HATTIESBURG    PTCLDY    50  19  29 NW15G24   30.00R
MCCOMB         CLEAR     51  14  22 NW17G37   30.02R
NATCHEZ        PTCLDY    52  16  24 NW21G29   30.05S
PINE BELT      PTCLDY    48  18  29 NW12G24   30.01R
$$

MSZ080>082-090000-
COASTAL MISSISSIPPI

CITY           SKY/WX    TMP DP  RH WIND       PRES   REMARKS
BAY ST LOUIS   PTCLDY    54   1  12 NW13G26   29.99R
BILOXI         CLEAR     55  19  24 NW22G28   29.95R
PASCAGOULA     CLEAR     55  17  22 NW14G28   29.95R
GULFPORT       CLEAR     55  18  23 NW15G25   29.96R
$$




USA.gov is the U.S. government's official web portal to all federal, state and local government web resources and services.